Time,TemperatureF,DewpointF,PressureIn,WindDirection,WindDirectionDegrees,WindSpeedMPH,WindSpeedGustMPH,Humidity,HourlyPrecipIn,Conditions,Clouds,dailyrainin,SoftwareType,DateUTC
2013-05-19 00:00:00,76.0,67.0,29.84,SSW,200,13.0,16.0,76,-99.99,,,-99.99,,2013-05-19 05:00:00,
2013-05-19 00:12:00,76.0,68.0,29.83,SSW,200,11.0,19.0,76,-99.99,,,-99.99,,2013-05-19 05:12:00,
2013-05-19 00:22:00,76.0,68.0,29.83,SSW,200,11.0,19.0,76,-99.99,,,-99.99,,2013-05-19 05:22:00,
2013-05-19 00:32:00,75.0,67.0,29.84,SSW,200,10.0,16.0,76,-99.99,,,-99.99,,2013-05-19 05:32:00,
2013-05-19 00:42:00,76.0,67.0,29.84,SSW,200,13.0,16.0,76,-99.99,,,-99.99,,2013-05-19 05:42:00,
2013-05-19 00:51:00,76.0,67.0,29.84,SSW,200,13.0,16.0,76,-99.99,,,-99.99,,2013-05-19 05:51:00,
2013-05-19 01:12:00,74.0,67.0,29.85,SSW,200,7.0,12.0,78,-99.99,,,-99.99,,2013-05-19 06:12:00,
2013-05-19 01:21:00,74.0,67.0,29.85,SSW,200,7.0,12.0,78,-99.99,,,-99.99,,2013-05-19 06:21:00,
2013-05-19 01:32:00,74.0,67.0,29.86,SSW,210,7.0,9.0,79,-99.99,,,-99.99,,2013-05-19 06:32:00,
2013-05-19 01:42:00,74.0,67.0,29.86,SSW,205,6.0,10.0,80,-99.99,,,-99.99,,2013-05-19 06:42:00,
2013-05-19 01:52:00,74.0,67.0,29.86,SSW,205,6.0,10.0,80,-99.99,,,-99.99,,2013-05-19 06:52:00,
2013-05-19 02:01:00,73.0,67.0,29.86,SSW,210,6.0,9.0,80,-99.99,,,-99.99,,2013-05-19 07:01:00,
2013-05-19 02:11:00,74.0,68.0,29.85,SSW,200,8.0,11.0,81,-99.99,,,-99.99,,2013-05-19 07:11:00,
2013-05-19 02:21:00,74.0,68.0,29.85,SSW,200,8.0,11.0,81,-99.99,,,-99.99,,2013-05-19 07:21:00,
2013-05-19 02:32:00,74.0,68.0,29.85,SSW,200,10.0,14.0,79,-99.99,,,-99.99,,2013-05-19 07:32:00,
2013-05-19 02:42:00,75.0,68.0,29.85,SSW,205,12.0,18.0,77,-99.99,,,-99.99,,2013-05-19 07:42:00,
2013-05-19 02:52:00,75.0,68.0,29.85,SSW,205,12.0,18.0,77,-99.99,,,-99.99,,2013-05-19 07:52:00,
2013-05-19 03:02:00,75.0,64.0,29.91,West,265,12.0,31.0,70,-99.99,,,-99.99,,2013-05-19 08:02:00,
2013-05-19 03:12:00,73.0,61.0,29.89,West,260,9.0,27.0,66,-99.99,,,-99.99,,2013-05-19 08:12:00,
2013-05-19 03:22:00,73.0,61.0,29.89,West,260,9.0,27.0,66,-99.99,,,-99.99,,2013-05-19 08:22:00,
2013-05-19 03:32:00,72.0,59.0,29.86,WSW,245,5.0,14.0,64,-99.99,,,-99.99,,2013-05-19 08:32:00,
2013-05-19 03:42:00,71.0,59.0,29.83,SSW,205,6.0,10.0,66,-99.99,,,-99.99,,2013-05-19 08:42:00,
2013-05-19 03:52:00,71.0,59.0,29.83,SSW,205,6.0,10.0,66,-99.99,,,-99.99,,2013-05-19 08:52:00,
2013-05-19 04:02:00,70.0,59.0,29.79,SSE,155,3.0,7.0,69,-99.99,,,-99.99,,2013-05-19 09:02:00,
2013-05-19 04:12:00,69.0,59.0,29.78,SW,215,4.0,6.0,72,-99.99,,,-99.99,,2013-05-19 09:12:00,
2013-05-19 04:21:00,69.0,59.0,29.78,SW,215,4.0,6.0,72,-99.99,,,-99.99,,2013-05-19 09:21:00,
2013-05-19 04:32:00,69.0,58.0,29.76,South,175,6.0,10.0,69,-99.99,,,-99.99,,2013-05-19 09:32:00,
2013-05-19 04:43:00,69.0,58.0,29.78,SSW,210,9.0,12.0,68,-99.99,,,-99.99,,2013-05-19 09:43:00,
2013-05-19 04:53:00,69.0,58.0,29.78,SSW,210,9.0,12.0,68,-99.99,,,-99.99,,2013-05-19 09:53:00,
2013-05-19 05:02:00,69.0,59.0,29.81,SSW,205,7.0,13.0,70,-99.99,,,-99.99,,2013-05-19 10:02:00,
2013-05-19 05:12:00,70.0,59.0,29.81,SSW,200,9.0,15.0,68,-99.99,,,-99.99,,2013-05-19 10:12:00,
2013-05-19 05:23:00,70.0,59.0,29.81,SSW,200,9.0,15.0,68,-99.99,,,-99.99,,2013-05-19 10:23:00,
2013-05-19 05:33:00,70.0,59.0,29.82,SSW,200,9.0,12.0,68,-99.99,,,-99.99,,2013-05-19 10:33:00,
2013-05-19 05:42:00,70.0,59.0,29.81,SSW,195,8.0,13.0,69,-99.99,,,-99.99,,2013-05-19 10:42:00,
2013-05-19 05:52:00,70.0,59.0,29.81,SSW,195,8.0,13.0,69,-99.99,,,-99.99,,2013-05-19 10:52:00,
2013-05-19 06:02:00,70.0,60.0,29.80,South,185,6.0,9.0,70,-99.99,,,-99.99,,2013-05-19 11:02:00,
2013-05-19 06:12:00,70.0,60.0,29.80,South,190,5.0,10.0,70,-99.99,,,-99.99,,2013-05-19 11:12:00,
2013-05-19 06:21:00,70.0,60.0,29.80,South,190,5.0,10.0,70,-99.99,,,-99.99,,2013-05-19 11:21:00,
2013-05-19 06:32:00,70.0,61.0,29.80,SSW,200,6.0,11.0,73,-99.99,,,-99.99,,2013-05-19 11:32:00,
2013-05-19 06:42:00,70.0,61.0,29.82,SSW,200,7.0,12.0,73,-99.99,,,-99.99,,2013-05-19 11:42:00,
2013-05-19 06:52:00,70.0,61.0,29.82,SSW,200,7.0,12.0,73,-99.99,,,-99.99,,2013-05-19 11:52:00,
2013-05-19 07:01:00,71.0,63.0,29.82,SSW,200,7.0,11.0,76,-99.99,,,-99.99,,2013-05-19 12:01:00,
2013-05-19 07:11:00,72.0,64.0,29.83,SW,220,7.0,11.0,77,-99.99,,,-99.99,,2013-05-19 12:11:00,
2013-05-19 07:22:00,72.0,64.0,29.83,SW,220,7.0,11.0,77,-99.99,,,-99.99,,2013-05-19 12:22:00,
2013-05-19 07:30:00,69.0,60.0,29.87,SE,140,3.0,6.0,72,-99.99,,,-99.99,,2013-05-19 12:30:00,
2013-05-19 07:32:00,71.0,62.0,29.87,WSW,255,5.0,21.0,72,-99.99,,,-99.99,,2013-05-19 12:32:00,
2013-05-19 07:42:00,70.0,59.0,29.88,NW,315,9.0,26.0,69,-99.99,,,-99.99,,2013-05-19 12:42:00,
2013-05-19 07:52:00,70.0,59.0,29.88,NW,315,9.0,26.0,69,-99.99,,,-99.99,,2013-05-19 12:52:00,
2013-05-19 08:01:00,70.0,60.0,29.88,NNW,345,1.0,9.0,71,-99.99,,,-99.99,,2013-05-19 13:01:00,
2013-05-19 08:11:00,69.0,60.0,29.87,SE,140,3.0,6.0,72,-99.99,,,-99.99,,2013-05-19 13:11:00,
2013-05-19 08:21:00,69.0,60.0,29.87,SE,140,3.0,6.0,72,-99.99,,,-99.99,,2013-05-19 13:21:00,
2013-05-19 08:42:00,68.0,63.0,29.85,NE,55,4.0,6.0,84,-99.99,,,-99.99,,2013-05-19 13:42:00,
2013-05-19 08:52:00,68.0,63.0,29.85,NE,55,4.0,6.0,84,-99.99,,,-99.99,,2013-05-19 13:52:00,
2013-05-19 09:02:00,69.0,65.0,29.84,ENE,75,1.0,4.0,85,-99.99,,,-99.99,,2013-05-19 14:02:00,
2013-05-19 09:11:00,71.0,66.0,29.84,East,85,2.0,3.0,85,-99.99,,,-99.99,,2013-05-19 14:11:00,
2013-05-19 09:21:00,71.0,66.0,29.84,East,85,2.0,3.0,85,-99.99,,,-99.99,,2013-05-19 14:21:00,
2013-05-19 09:32:00,74.0,66.0,29.83,ESE,110,2.0,4.0,78,-99.99,,,-99.99,,2013-05-19 14:32:00,
2013-05-19 09:42:00,74.0,66.0,29.83,SSE,155,2.0,5.0,76,-99.99,,,-99.99,,2013-05-19 14:42:00,
2013-05-19 09:52:00,74.0,66.0,29.83,SSE,155,2.0,5.0,76,-99.99,,,-99.99,,2013-05-19 14:52:00,
2013-05-19 10:01:00,75.0,67.0,29.83,SSE,165,3.0,6.0,74,-99.99,,,-99.99,,2013-05-19 15:01:00,
2013-05-19 10:11:00,75.0,66.0,29.83,South,175,5.0,9.0,72,-99.99,,,-99.99,,2013-05-19 15:11:00,
2013-05-19 10:22:00,75.0,66.0,29.83,South,175,5.0,9.0,72,-99.99,,,-99.99,,2013-05-19 15:22:00,
2013-05-19 10:33:00,76.0,66.0,29.81,SSW,195,9.0,15.0,72,-99.99,,,-99.99,,2013-05-19 15:33:00,
2013-05-19 10:43:00,76.0,66.0,29.81,SSW,205,9.0,13.0,71,-99.99,,,-99.99,,2013-05-19 15:43:00,
2013-05-19 10:53:00,76.0,66.0,29.81,SSW,205,9.0,13.0,71,-99.99,,,-99.99,,2013-05-19 15:53:00,
2013-05-19 11:03:00,76.0,65.0,29.80,SSW,205,10.0,17.0,68,-99.99,,,-99.99,,2013-05-19 16:03:00,
2013-05-19 11:12:00,77.0,66.0,29.80,SSW,195,13.0,19.0,67,-99.99,,,-99.99,,2013-05-19 16:12:00,
2013-05-19 11:23:00,77.0,66.0,29.80,SSW,195,13.0,19.0,67,-99.99,,,-99.99,,2013-05-19 16:23:00,
2013-05-19 11:32:00,78.0,64.0,29.79,SSW,200,15.0,24.0,62,-99.99,,,-99.99,,2013-05-19 16:32:00,
2013-05-19 11:42:00,79.0,63.0,29.78,SW,215,16.0,24.0,57,-99.99,,,-99.99,,2013-05-19 16:42:00,
2013-05-19 11:52:00,79.0,63.0,29.78,SW,215,16.0,24.0,57,-99.99,,,-99.99,,2013-05-19 16:52:00,
2013-05-19 12:02:00,81.0,63.0,29.78,SSW,195,13.0,26.0,55,-99.99,,,-99.99,,2013-05-19 17:02:00,
2013-05-19 12:12:00,81.0,62.0,29.78,SSW,210,18.0,30.0,53,-99.99,,,-99.99,,2013-05-19 17:12:00,
2013-05-19 12:22:00,81.0,62.0,29.78,SSW,210,18.0,30.0,53,-99.99,,,-99.99,,2013-05-19 17:22:00,
2013-05-19 12:32:00,82.0,64.0,29.78,SSW,205,12.0,19.0,55,-99.99,,,-99.99,,2013-05-19 17:32:00,
2013-05-19 12:42:00,82.0,61.0,29.77,SW,215,15.0,25.0,50,-99.99,,,-99.99,,2013-05-19 17:42:00,
2013-05-19 12:52:00,82.0,61.0,29.77,SW,215,15.0,25.0,50,-99.99,,,-99.99,,2013-05-19 17:52:00,
2013-05-19 13:00:00,84.0,62.0,29.74,SW,225,11.0,26.0,48,-99.99,,,-99.99,,2013-05-19 18:00:00,
2013-05-19 13:02:00,82.0,64.0,29.76,SSW,195,14.0,29.0,54,-99.99,,,-99.99,,2013-05-19 18:02:00,
2013-05-19 13:12:00,83.0,62.0,29.76,SSW,210,15.0,23.0,50,-99.99,,,-99.99,,2013-05-19 18:12:00,
2013-05-19 13:22:00,83.0,62.0,29.76,SSW,210,15.0,23.0,50,-99.99,,,-99.99,,2013-05-19 18:22:00,
2013-05-19 13:32:00,83.0,62.0,29.75,SW,220,15.0,25.0,49,-99.99,,,-99.99,,2013-05-19 18:32:00,
2013-05-19 13:42:00,84.0,62.0,29.74,SW,225,11.0,26.0,48,-99.99,,,-99.99,,2013-05-19 18:42:00,
2013-05-19 13:52:00,84.0,62.0,29.74,SW,225,11.0,26.0,48,-99.99,,,-99.99,,2013-05-19 18:52:00,
2013-05-19 14:11:00,84.0,63.0,29.74,SSW,210,13.0,30.0,49,-99.99,,,-99.99,,2013-05-19 19:11:00,
2013-05-19 14:22:00,84.0,63.0,29.74,SSW,210,13.0,30.0,49,-99.99,,,-99.99,,2013-05-19 19:22:00,
2013-05-19 14:32:00,84.0,61.0,29.73,SW,220,21.0,30.0,47,-99.99,,,-99.99,,2013-05-19 19:32:00,
2013-05-19 14:42:00,84.0,62.0,29.73,SW,225,14.0,25.0,47,-99.99,,,-99.99,,2013-05-19 19:42:00,
2013-05-19 14:52:00,84.0,62.0,29.73,SW,225,14.0,25.0,47,-99.99,,,-99.99,,2013-05-19 19:52:00,
2013-05-19 15:02:00,85.0,63.0,29.72,SSW,205,19.0,25.0,48,-99.99,,,-99.99,,2013-05-19 20:02:00,
2013-05-19 15:11:00,85.0,64.0,29.72,SSW,195,17.0,28.0,50,-99.99,,,-99.99,,2013-05-19 20:11:00,
2013-05-19 15:21:00,85.0,64.0,29.72,SSW,195,17.0,28.0,50,-99.99,,,-99.99,,2013-05-19 20:21:00,
2013-05-19 15:32:00,85.0,63.0,29.70,SW,230,16.0,29.0,47,-99.99,,,-99.99,,2013-05-19 20:32:00,
2013-05-19 15:42:00,85.0,64.0,29.70,SSW,195,21.0,28.0,49,-99.99,,,-99.99,,2013-05-19 20:42:00,
2013-05-19 15:52:00,85.0,64.0,29.70,SSW,195,21.0,28.0,49,-99.99,,,-99.99,,2013-05-19 20:52:00,
2013-05-19 16:02:00,85.0,62.0,29.69,SSW,195,23.0,34.0,46,-99.99,,,-99.99,,2013-05-19 21:02:00,
2013-05-19 16:11:00,85.0,63.0,29.69,SSW,205,21.0,34.0,47,-99.99,,,-99.99,,2013-05-19 21:11:00,
2013-05-19 16:22:00,85.0,63.0,29.69,SSW,205,21.0,34.0,47,-99.99,,,-99.99,,2013-05-19 21:22:00,
2013-05-19 16:32:00,85.0,62.0,29.68,SSW,205,21.0,31.0,45,-99.99,,,-99.99,,2013-05-19 21:32:00,
2013-05-19 16:43:00,86.0,62.0,29.67,SSW,200,19.0,29.0,46,-99.99,,,-99.99,,2013-05-19 21:43:00,
2013-05-19 16:53:00,86.0,62.0,29.67,SSW,200,19.0,29.0,46,-99.99,,,-99.99,,2013-05-19 21:53:00,
2013-05-19 17:03:00,85.0,62.0,29.66,SSW,205,17.0,34.0,46,-99.99,,,-99.99,,2013-05-19 22:03:00,
2013-05-19 17:12:00,85.0,62.0,29.67,SW,220,14.0,28.0,46,-99.99,,,-99.99,,2013-05-19 22:12:00,
2013-05-19 17:23:00,85.0,62.0,29.67,SW,220,14.0,28.0,46,-99.99,,,-99.99,,2013-05-19 22:23:00,
2013-05-19 17:33:00,85.0,62.0,29.66,SW,215,15.0,26.0,47,-99.99,,,-99.99,,2013-05-19 22:33:00,
2013-05-19 17:42:00,84.0,62.0,29.66,SSW,205,15.0,24.0,48,-99.99,,,-99.99,,2013-05-19 22:42:00,
2013-05-19 17:52:00,84.0,62.0,29.66,SSW,205,15.0,24.0,48,-99.99,,,-99.99,,2013-05-19 22:52:00,
2013-05-19 18:02:00,84.0,61.0,29.66,SSW,205,14.0,25.0,47,-99.99,,,-99.99,,2013-05-19 23:02:00,
2013-05-19 18:12:00,83.0,62.0,29.66,SW,215,17.0,26.0,48,-99.99,,,-99.99,,2013-05-19 23:12:00,
2013-05-19 18:22:00,83.0,62.0,29.66,SW,215,17.0,26.0,48,-99.99,,,-99.99,,2013-05-19 23:22:00,
2013-05-19 18:32:00,83.0,61.0,29.66,SSW,210,15.0,24.0,47,-99.99,,,-99.99,,2013-05-19 23:32:00,
2013-05-19 18:42:00,83.0,61.0,29.66,SW,215,14.0,23.0,47,-99.99,,,-99.99,,2013-05-19 23:42:00,
2013-05-19 18:52:00,83.0,61.0,29.66,SW,215,14.0,23.0,47,-99.99,,,-99.99,,2013-05-19 23:52:00,
2013-05-19 19:02:00,82.0,61.0,29.67,SW,225,10.0,19.0,49,-99.99,,,-99.99,,2013-05-20 00:02:00,
2013-05-19 19:11:00,82.0,62.0,29.69,SW,225,8.0,16.0,50,-99.99,,,-99.99,,2013-05-20 00:11:00,
2013-05-19 19:22:00,82.0,62.0,29.69,SW,225,8.0,16.0,50,-99.99,,,-99.99,,2013-05-20 00:22:00,
2013-05-19 19:32:00,80.0,64.0,29.70,SSW,210,6.0,9.0,57,-99.99,,,-99.99,,2013-05-20 00:32:00,
2013-05-19 19:42:00,78.0,64.0,29.69,SSW,210,9.0,14.0,63,-99.99,,,-99.99,,2013-05-20 00:42:00,
2013-05-19 19:52:00,78.0,64.0,29.69,SSW,210,9.0,14.0,63,-99.99,,,-99.99,,2013-05-20 00:52:00,
2013-05-19 20:00:00,79.0,63.0,29.62,SSW,195,17.0,32.0,59,-99.99,,,-99.99,,2013-05-20 01:00:00,
2013-05-19 20:01:00,78.0,64.0,29.62,South,175,22.0,33.0,62,-99.99,,,-99.99,,2013-05-20 01:01:00,
2013-05-19 20:11:00,79.0,64.0,29.66,SSW,205,17.0,32.0,61,-99.99,,,-99.99,,2013-05-20 01:11:00,
2013-05-19 20:21:00,79.0,64.0,29.66,SSW,205,17.0,32.0,61,-99.99,,,-99.99,,2013-05-20 01:21:00,
2013-05-19 20:31:00,79.0,63.0,29.61,SSW,205,23.0,33.0,58,-99.99,,,-99.99,,2013-05-20 01:31:00,
2013-05-19 20:42:00,79.0,63.0,29.62,SSW,195,17.0,32.0,59,-99.99,,,-99.99,,2013-05-20 01:42:00,
2013-05-19 20:52:00,79.0,63.0,29.62,SSW,195,17.0,32.0,59,-99.99,,,-99.99,,2013-05-20 01:52:00,
2013-05-19 21:31:00,79.0,63.0,29.66,South,185,18.0,27.0,57,-99.99,,,-99.99,,2013-05-20 02:31:00,
2013-05-19 21:42:00,79.0,63.0,29.68,SSW,200,19.0,33.0,57,-99.99,,,-99.99,,2013-05-20 02:42:00,
2013-05-19 21:51:00,79.0,63.0,29.68,SSW,200,19.0,33.0,57,-99.99,,,-99.99,,2013-05-20 02:51:00,
2013-05-19 22:01:00,79.0,63.0,29.69,South,180,13.0,23.0,59,-99.99,,,-99.99,,2013-05-20 03:01:00,
2013-05-19 22:11:00,78.0,63.0,29.69,SSW,195,12.0,23.0,59,-99.99,,,-99.99,,2013-05-20 03:11:00,
2013-05-19 22:21:00,78.0,63.0,29.69,SSW,195,12.0,23.0,59,-99.99,,,-99.99,,2013-05-20 03:21:00,
2013-05-19 22:33:00,78.0,63.0,29.72,SSW,200,13.0,21.0,60,-99.99,,,-99.99,,2013-05-20 03:33:00,
2013-05-19 22:43:00,78.0,63.0,29.72,SSW,195,11.0,18.0,61,-99.99,,,-99.99,,2013-05-20 03:43:00,
2013-05-19 22:52:00,78.0,63.0,29.72,SSW,195,11.0,18.0,61,-99.99,,,-99.99,,2013-05-20 03:52:00,
2013-05-19 23:03:00,77.0,63.0,29.70,South,185,11.0,17.0,63,-99.99,,,-99.99,,2013-05-20 04:03:00,
2013-05-19 23:13:00,77.0,63.0,29.70,SSW,200,11.0,19.0,63,-99.99,,,-99.99,,2013-05-20 04:13:00,
2013-05-19 23:23:00,77.0,63.0,29.70,SSW,200,11.0,19.0,63,-99.99,,,-99.99,,2013-05-20 04:23:00,
2013-05-19 23:33:00,77.0,64.0,29.69,SSW,195,14.0,19.0,64,-99.99,,,-99.99,,2013-05-20 04:33:00,
2013-05-19 23:42:00,77.0,64.0,29.70,SSW,200,17.0,24.0,65,-99.99,,,-99.99,,2013-05-20 04:42:00,
2013-05-19 23:52:00,77.0,64.0,29.70,SSW,200,17.0,24.0,65,-99.99,,,-99.99,,2013-05-20 04:52:00,